Tracking 22879 objects as of 21-Apr-2021
HD Live streaming from Space Station
objects crossing your sky now

COSMOS 643

Track COSMOS 643 now!
10-day predictions
COSMOS 643 is classified as:


NORAD ID: 7267
Int'l Code: 1974-024C
Perigee: 1,359.9 km
Apogee: 1,487.5 km
Inclination: 74.0 °
Period: 114.1 minutes
Semi major axis: 7794 km
RCS: 0.6885 m2 (medium)
Launch date: April 23, 1974
Source: Commonwealth of Independent States (former USSR) (CIS)
Launch site: PLESETSK MISSILE AND SPACE COMPLEX (PKMTR)
aabbcc
Your satellite tracking list
Your tracking list is empty




NASA's NSSDC Master Catalog

Two Line Element Set (TLE):
1  7267U 74024C   21110.60228198 -.00000017  00000-0 -37935-5 0  9992
2  7267  74.0164 156.3009 0081908  54.8123  59.4974 12.61547998164347
Source of the keplerian elements: AFSPC